User: anonymous   Login
Location: Unspecified
(0.0000°N, 0.0000°E)
Time: 19:14:24
(UTC+00:00)
Language:

STARLINK-34710 - Orbit

View from above orbital plane
View from above orbital plane
View from above satellite
View from above satellite

Ground track
Ground track

The orbit is defined by the following mean orbital elements,

1 65365U          26145.45492199 +.00000000 +00000-0 +45105-3 0 00007
2 65365  53.1586 171.9435 0001163  74.7856 285.3273 15.30205140    04
Epoch (UTC): 25 May 2026 10:55:05
Eccentricity: 0.0001163
inclination: 53.1586°
perigee height: 474 km
apogee height: 476 km
right ascension of ascending node: 171.9435°
argument of perigee: 74.7856°
revolutions per day: 15.30205140
mean anomaly at epoch: 285.3273°

The dashed part of the orbit path shows where the satellite is in the earth's shadow,  

DLR